Location: Aalen
(48.8330°N, 10.1000°E)
Time: 01:12:24
(UTC+02:00)

Transit 2A - Pass Details

Date: 06 August 2021
Orbit: 594 x 964 km, 66.7° (Epoch: 26 September)

Event Time Altitude Azimuth Distance (km) Brightness Sun altitude
Rises 07:48:32 0° 245° (WSW) 2,872 8.4 16.2°
Reaches altitude 10° 07:50:56 10° 256° (WSW) 2,002 7.6 16.6°
Maximum altitude 07:54:57 31° 320° (NW) 1,150 6.8 17.2°
Drops below altitude 10° 07:59:19 10° 23° (NNE) 2,176 8.8 17.9°
Sets 08:02:02 0° 33° (NNE) 3,165 9.7 18.4°
